Time,TemperatureF,DewpointF,PressureIn,WindDirection,WindDirectionDegrees,WindSpeedMPH,WindSpeedGustMPH,Humidity,HourlyPrecipIn,Conditions,Clouds,dailyrainin,SolarRadiationWatts/m^2,SoftwareType,DateUTC
2013-03-04 00:21:00,48.0,35.0,30.07,West,267,3.0,4.0,61,-99.99,,,-99.99,0.000000,,2013-03-04 08:21:00,
2013-03-04 01:21:00,49.0,35.0,30.07,NW,322,1.0,3.0,58,-99.99,,,-99.99,0.000000,,2013-03-04 09:21:00,
2013-03-04 02:21:00,48.0,35.0,30.08,SSE,156,3.0,3.0,60,-99.99,,,-99.99,0.000000,,2013-03-04 10:21:00,
2013-03-04 03:21:00,48.0,34.0,30.09,East,84,5.0,8.0,59,-99.99,,,-99.99,0.000000,,2013-03-04 11:21:00,
2013-03-04 04:22:00,50.0,34.0,30.08,NE,45,1.0,3.0,54,-99.99,,,-99.99,0.000000,,2013-03-04 12:22:00,
2013-03-04 05:21:00,45.0,34.0,30.08,East,82,6.0,9.0,65,-99.99,,,-99.99,0.000000,,2013-03-04 13:21:00,
2013-03-04 06:22:00,43.0,35.0,30.09,ESE,117,4.0,7.0,73,-99.99,,,-99.99,0.000000,,2013-03-04 14:22:00,
2013-03-04 07:21:00,46.0,34.0,30.09,East,88,8.0,10.0,63,-99.99,,,-99.99,6.000000,,2013-03-04 15:21:00,
2013-03-04 08:21:00,51.0,35.0,30.10,SSE,159,2.0,4.0,54,-99.99,,,-99.99,207.000000,,2013-03-04 16:21:00,
2013-03-04 09:22:00,52.0,36.0,30.12,North,5,4.0,5.0,54,-99.99,,,-99.99,439.000000,,2013-03-04 17:22:00,
2013-03-04 09:40:00,51.0,39.0,30.14,West,268,6.0,8.0,63,-99.99,,,-99.99,632.000000,,2013-03-04 17:40:00,
2013-03-04 10:21:00,51.0,39.0,30.14,West,268,6.0,8.0,63,-99.99,,,-99.99,632.000000,,2013-03-04 18:21:00,
2013-03-04 10:32:00,51.0,39.0,30.14,West,268,6.0,8.0,63,-99.99,,,-99.99,632.000000,,2013-03-04 18:32:00,
2013-03-04 10:40:00,49.0,42.0,30.14,SSW,206,2.0,4.0,79,-99.99,,,-99.99,771.000000,,2013-03-04 18:40:00,
2013-03-04 11:21:00,49.0,42.0,30.14,SSW,206,2.0,4.0,79,-99.99,,,-99.99,771.000000,,2013-03-04 19:21:00,
2013-03-04 11:32:00,49.0,42.0,30.14,SSW,206,2.0,4.0,79,-99.99,,,-99.99,771.000000,,2013-03-04 19:32:00,
2013-03-04 11:40:00,54.0,44.0,30.13,West,265,4.0,7.0,68,-99.99,,,-99.99,836.000000,,2013-03-04 19:40:00,
2013-03-04 12:21:00,54.0,44.0,30.13,West,265,4.0,7.0,68,-99.99,,,-99.99,836.000000,,2013-03-04 20:21:00,
2013-03-04 12:32:00,54.0,44.0,30.13,West,265,4.0,7.0,68,-99.99,,,-99.99,836.000000,,2013-03-04 20:32:00,
2013-03-04 12:40:00,52.0,44.0,30.12,WSW,244,4.0,9.0,76,-99.99,,,-99.99,840.000000,,2013-03-04 20:40:00,
2013-03-04 13:21:00,52.0,44.0,30.12,WSW,244,4.0,9.0,76,-99.99,,,-99.99,840.000000,,2013-03-04 21:21:00,
2013-03-04 13:32:00,52.0,44.0,30.12,WSW,244,4.0,9.0,76,-99.99,,,-99.99,840.000000,,2013-03-04 21:32:00,
2013-03-04 13:40:00,56.0,41.0,30.09,SSE,166,3.0,6.0,57,-99.99,,,-99.99,781.000000,,2013-03-04 21:40:00,
2013-03-04 14:32:00,56.0,41.0,30.09,SSE,166,3.0,6.0,57,-99.99,,,-99.99,781.000000,,2013-03-04 22:32:00,
2013-03-04 14:40:00,46.0,42.0,30.10,WNW,288,4.0,7.0,85,-99.99,,,-99.99,454.000000,,2013-03-04 22:40:00,
2013-03-04 15:32:00,46.0,42.0,30.10,WNW,288,4.0,7.0,85,-99.99,,,-99.99,454.000000,,2013-03-04 23:32:00,
2013-03-04 15:40:00,55.0,42.0,30.09,WNW,289,3.0,6.0,62,-99.99,,,-99.99,474.000000,,2013-03-04 23:40:00,
2013-03-04 16:21:00,55.0,42.0,30.09,WNW,289,3.0,6.0,62,-99.99,,,-99.99,474.000000,,2013-03-05 00:21:00,
2013-03-04 16:32:00,55.0,42.0,30.09,WNW,289,3.0,6.0,62,-99.99,,,-99.99,474.000000,,2013-03-05 00:32:00,
2013-03-04 16:40:00,55.0,40.0,30.09,West,259,3.0,5.0,58,-99.99,,,-99.99,259.000000,,2013-03-05 00:40:00,
2013-03-04 17:32:00,55.0,40.0,30.09,West,259,3.0,5.0,58,-99.99,,,-99.99,259.000000,,2013-03-05 01:32:00,
2013-03-04 17:40:00,53.0,38.0,30.09,West,265,3.0,6.0,57,-99.99,,,-99.99,70.000000,,2013-03-05 01:40:00,
2013-03-04 18:21:00,53.0,38.0,30.09,West,265,3.0,6.0,57,-99.99,,,-99.99,70.000000,,2013-03-05 02:21:00,
2013-03-04 18:32:00,53.0,38.0,30.09,West,265,3.0,6.0,57,-99.99,,,-99.99,70.000000,,2013-03-05 02:32:00,
2013-03-04 18:40:00,50.0,37.0,30.07,SE,144,0.0,2.0,62,-99.99,,,-99.99,0.000000,,2013-03-05 02:40:00,
2013-03-04 19:22:00,50.0,37.0,30.07,SE,144,0.0,2.0,62,-99.99,,,-99.99,0.000000,,2013-03-05 03:22:00,
2013-03-04 19:32:00,50.0,37.0,30.07,SE,144,0.0,2.0,62,-99.99,,,-99.99,0.000000,,2013-03-05 03:32:00,
2013-03-04 19:40:00,51.0,39.0,30.08,ENE,61,2.0,3.0,64,-99.99,,,-99.99,0.000000,,2013-03-05 03:40:00,
2013-03-04 20:21:00,51.0,39.0,30.08,ENE,61,2.0,3.0,64,-99.99,,,-99.99,0.000000,,2013-03-05 04:21:00,
2013-03-04 20:31:00,51.0,39.0,30.08,ENE,61,2.0,3.0,64,-99.99,,,-99.99,0.000000,,2013-03-05 04:31:00,
2013-03-04 20:40:00,52.0,40.0,30.08,SSE,155,5.0,6.0,63,-99.99,,,-99.99,0.000000,,2013-03-05 04:40:00,
2013-03-04 21:22:00,52.0,40.0,30.08,SSE,155,5.0,6.0,63,-99.99,,,-99.99,0.000000,,2013-03-05 05:22:00,
2013-03-04 21:31:00,52.0,40.0,30.08,SSE,155,5.0,6.0,63,-99.99,,,-99.99,0.000000,,2013-03-05 05:31:00,
2013-03-04 22:22:00,52.0,37.0,30.08,SSE,157,6.0,8.0,58,-99.99,,,-99.99,0.000000,,2013-03-05 06:22:00,
2013-03-04 22:31:00,52.0,37.0,30.08,SSE,157,6.0,8.0,58,-99.99,,,-99.99,0.000000,,2013-03-05 06:31:00,
2013-03-04 23:21:00,51.0,38.0,30.08,SE,142,4.0,6.0,60,-99.99,,,-99.99,0.000000,,2013-03-05 07:21:00,
2013-03-04 23:31:00,51.0,38.0,30.08,SE,142,4.0,6.0,60,-99.99,,,-99.99,0.000000,,2013-03-05 07:31:00,
2013-03-04 23:40:00,49.0,38.0,30.08,SE,136,1.0,3.0,66,-99.99,,,-99.99,0.000000,,2013-03-05 07:40:00,